Time,TemperatureF,DewpointF,PressureIn,WindDirection,WindDirectionDegrees,WindSpeedMPH,WindSpeedGustMPH,Humidity,HourlyPrecipIn,Conditions,Clouds,dailyrainin,SoftwareType,DateUTC
2013-01-31 00:00:00,38.0,38.0,29.73,NW,315,19.0,32.0,100,0.02,,,-99.99,WeatherLink 5.4,2013-01-31 05:00:00,
2013-01-31 00:30:00,35.9,35.9,29.74,NW,315,17.0,30.0,100,0.01,,,-99.99,WeatherLink 5.4,2013-01-31 05:30:00,
2013-01-31 01:00:00,35.4,34.4,29.75,NNW,337,15.0,30.0,96,0.00,,,-99.99,WeatherLink 5.4,2013-01-31 06:00:00,
2013-01-31 01:30:00,34.2,33.2,29.77,NW,315,17.0,33.0,96,0.00,,,-99.99,WeatherLink 5.4,2013-01-31 06:30:00,
2013-01-31 02:00:00,32.8,32.3,29.80,NNW,337,17.0,30.0,98,0.00,,,-99.99,WeatherLink 5.4,2013-01-31 07:00:00,
2013-01-31 02:30:00,31.7,30.7,29.80,NW,315,14.0,25.0,96,0.00,,,-99.99,WeatherLink 5.4,2013-01-31 07:30:00,
2013-01-31 03:00:00,31.2,28.1,29.83,NNW,337,16.0,27.0,88,0.00,,,-99.99,WeatherLink 5.4,2013-01-31 08:00:00,
2013-01-31 03:30:00,30.6,27.7,29.83,NNW,337,14.0,27.0,89,0.00,,,-99.99,WeatherLink 5.4,2013-01-31 08:30:00,
2013-01-31 04:00:00,30.2,27.1,29.85,NW,315,12.0,25.0,88,0.00,,,-99.99,WeatherLink 5.4,2013-01-31 09:00:00,
2013-01-31 04:30:00,29.5,26.7,29.85,NW,315,12.0,19.0,89,0.00,,,-99.99,WeatherLink 5.4,2013-01-31 09:30:00,
2013-01-31 05:00:00,29.0,26.4,29.85,NW,315,10.0,16.0,90,0.00,,,-99.99,WeatherLink 5.4,2013-01-31 10:00:00,
2013-01-31 05:30:00,28.7,26.7,29.87,NW,315,11.0,21.0,92,0.00,,,-99.99,WeatherLink 5.4,2013-01-31 10:30:00,
2013-01-31 06:00:00,28.5,26.2,29.89,NW,315,10.0,18.0,91,0.00,,,-99.99,WeatherLink 5.4,2013-01-31 11:00:00,
2013-01-31 06:30:00,28.4,24.5,29.91,NW,315,10.0,18.0,85,0.00,,,-99.99,WeatherLink 5.4,2013-01-31 11:30:00,
2013-01-31 07:00:00,28.3,23.2,29.93,NW,315,12.0,22.0,81,0.00,,,-99.99,WeatherLink 5.4,2013-01-31 12:00:00,
2013-01-31 07:30:00,27.9,21.9,29.94,NW,315,12.0,26.0,78,0.00,,,-99.99,WeatherLink 5.4,2013-01-31 12:30:00,
2013-01-31 08:00:00,27.5,21.8,29.95,NW,315,9.0,16.0,79,0.00,,,-99.99,WeatherLink 5.4,2013-01-31 13:00:00,
2013-01-31 08:30:00,27.5,22.4,29.96,NW,315,6.0,12.0,81,0.00,,,-99.99,WeatherLink 5.4,2013-01-31 13:30:00,
2013-01-31 08:35:00,27.7,22.6,29.96,NW,326,7.0,10.0,81,0.00,,BKN,0.01,VWS V12.07,2013-01-31 13:35:00,
2013-01-31 09:00:00,27.7,22.9,29.97,NW,315,7.0,15.0,82,0.00,,,-99.99,WeatherLink 5.4,2013-01-31 14:00:00,
2013-01-31 09:30:00,27.9,22.5,29.98,NW,315,11.0,21.0,80,0.00,,,-99.99,WeatherLink 5.4,2013-01-31 14:30:00,
2013-01-31 10:00:00,28.3,22.6,29.98,NW,315,10.0,21.0,79,0.00,,,-99.99,WeatherLink 5.4,2013-01-31 15:00:00,
2013-01-31 10:30:00,29.0,23.3,29.97,NNW,337,12.0,21.0,79,0.00,,,-99.99,WeatherLink 5.4,2013-01-31 15:30:00,
2013-01-31 11:00:00,30.1,24.1,29.98,NNW,337,12.0,19.0,78,0.00,,,-99.99,WeatherLink 5.4,2013-01-31 16:00:00,
2013-01-31 11:30:00,31.1,24.4,29.98,NW,315,9.0,17.0,76,0.00,,,-99.99,WeatherLink 5.4,2013-01-31 16:30:00,
2013-01-31 12:00:00,32.0,23.0,30.00,NNW,337,14.0,24.0,69,0.00,,,-99.99,WeatherLink 5.4,2013-01-31 17:00:00,
2013-01-31 12:30:00,32.8,22.7,30.01,NW,315,16.0,31.0,66,0.00,,,-99.99,WeatherLink 5.4,2013-01-31 17:30:00,
2013-01-31 13:00:00,33.4,22.5,30.00,NW,315,15.0,31.0,64,0.00,,,-99.99,WeatherLink 5.4,2013-01-31 18:00:00,
2013-01-31 13:30:00,34.1,22.4,30.00,NW,315,14.0,26.0,62,0.00,,,-99.99,WeatherLink 5.4,2013-01-31 18:30:00,
2013-01-31 14:00:00,35.3,21.6,30.01,NW,315,15.0,33.0,57,0.00,,,-99.99,WeatherLink 5.4,2013-01-31 19:00:00,
2013-01-31 14:01:00,35.3,21.6,30.01,NW,315,15.0,33.0,57,0.00,,,-99.99,WeatherLink 5.4,2013-01-31 19:01:00,
2013-01-31 14:30:00,35.3,21.6,30.01,NW,315,18.0,32.0,57,0.00,,,-99.99,WeatherLink 5.4,2013-01-31 19:30:00,
2013-01-31 14:32:00,35.3,21.6,30.01,NW,315,18.0,32.0,57,0.00,,,-99.99,WeatherLink 5.4,2013-01-31 19:32:00,
2013-01-31 15:00:00,35.6,21.9,30.01,NW,315,14.0,25.0,57,0.00,,,-99.99,WeatherLink 5.4,2013-01-31 20:00:00,
2013-01-31 15:02:00,35.6,21.9,30.01,NW,315,14.0,25.0,57,0.00,,,-99.99,WeatherLink 5.4,2013-01-31 20:02:00,
2013-01-31 15:30:00,36.7,22.0,30.02,NW,315,13.0,25.0,55,0.00,,,-99.99,WeatherLink 5.4,2013-01-31 20:30:00,
2013-01-31 15:32:00,36.7,22.0,30.02,NW,315,13.0,25.0,55,0.00,,,-99.99,WeatherLink 5.4,2013-01-31 20:32:00,
2013-01-31 16:00:00,37.1,22.4,30.01,NW,315,13.0,25.0,55,0.00,,,-99.99,WeatherLink 5.4,2013-01-31 21:00:00,
2013-01-31 16:30:00,37.4,22.7,30.02,NW,315,12.0,24.0,55,0.00,,,-99.99,WeatherLink 5.4,2013-01-31 21:30:00,
2013-01-31 17:00:00,37.3,23.0,30.02,NW,315,11.0,25.0,56,0.00,,,-99.99,WeatherLink 5.4,2013-01-31 22:00:00,
2013-01-31 17:30:00,37.3,23.0,30.02,NW,315,9.0,20.0,56,0.00,,,-99.99,WeatherLink 5.4,2013-01-31 22:30:00,
2013-01-31 18:00:00,37.0,24.0,30.03,NW,315,8.0,17.0,59,0.00,,,-99.99,WeatherLink 5.4,2013-01-31 23:00:00,
2013-01-31 18:30:00,36.5,23.9,30.03,NNW,337,7.0,15.0,60,0.00,,,-99.99,WeatherLink 5.4,2013-01-31 23:30:00,
2013-01-31 19:00:00,36.3,24.1,30.03,NNW,337,5.0,12.0,61,0.00,,,-99.99,WeatherLink 5.4,2013-02-01 00:00:00,
2013-01-31 19:30:00,36.1,24.3,30.05,North,0,2.0,9.0,62,0.00,,,-99.99,WeatherLink 5.4,2013-02-01 00:30:00,
2013-01-31 19:35:00,35.6,23.9,30.05,North,356,0.0,2.0,62,0.00,,FEW,0.01,VWS V12.07,2013-02-01 00:35:00,
2013-01-31 20:00:00,35.5,24.1,30.05,North,0,0.0,4.0,63,0.00,,,-99.99,WeatherLink 5.4,2013-02-01 01:00:00,
2013-01-31 20:30:00,35.3,24.3,30.06,North,0,0.0,6.0,64,0.00,,,-99.99,WeatherLink 5.4,2013-02-01 01:30:00,
2013-01-31 21:00:00,35.1,24.5,30.07,North,0,3.0,9.0,65,0.00,,,-99.99,WeatherLink 5.4,2013-02-01 02:00:00,
2013-01-31 21:30:00,35.5,24.9,30.08,NNW,337,3.0,9.0,65,0.00,,,-99.99,WeatherLink 5.4,2013-02-01 02:30:00,
2013-01-31 22:00:00,35.2,25.3,30.08,NNW,337,1.0,6.0,67,0.00,,,-99.99,WeatherLink 5.4,2013-02-01 03:00:00,
2013-01-31 22:30:00,35.2,25.7,30.07,SE,135,3.0,11.0,68,0.00,,,-99.99,WeatherLink 5.4,2013-02-01 03:30:00,
2013-01-31 23:00:00,35.3,25.8,30.08,SE,135,2.0,7.0,68,0.00,,,-99.99,WeatherLink 5.4,2013-02-01 04:00:00,
2013-01-31 23:30:00,35.5,25.6,30.08,SSE,157,3.0,9.0,67,0.00,,,-99.99,WeatherLink 5.4,2013-02-01 04:30:00,